{"data":{"norad_id":65084,"epoch":"2026-09-20T02:05:46.633056Z","epoch_age_seconds":155845,"freshness":"FRESH","line1":"1 65084U 25167G   26263.08734529  .00018676  00000+0  56258-3 0  9997","line2":"2 65084  53.1573 195.8397 0000412  27.9663 332.1362 15.34394373 63349","mean_motion":15.34394373,"eccentricity":4.12e-5,"inclination_deg":53.1573,"raan_deg":195.8397,"arg_perigee_deg":27.9663,"mean_anomaly_deg":332.1362,"bstar":0.00056258,"rev_number":6334,"period_min":93.848102244051,"perigee_km":462.4381215811,"apogee_km":463.00180819501,"semimajor_km":6840.8569648881,"source":"CELESTRAK","updated_at":"2026-09-21T09:00:35.522039Z"}}